502  
ASUS43 KDMX 200506  
RWRIA  
 
WEATHER ROUNDUP FOR IOWA  
NATIONAL WEATHER SERVICE DES MOINES IA  
1200 AM CDT WED OCT 20 2021  
 
NOTE: "FAIR" INDICATES FEW OR NO CLOUDS BELOW 12,000 FEET WITH NO  
SIGNIFICANT WEATHER AND/OR S TO VISIBILITY
.  
 
* - THESE STATIONS ARE NOT NWS STATIONS...THUS NOT UNDER NWS  
QUALITY CONTROL. THEY ALSO DO NOT REPORT WEATHER SUCH  
AS PRECIPITATION OR FOG.
 
 
IAZ001>003-012>014-020>022-031>034-043>046-200600-  
NORTHWEST IOWA  
 
CITY SKY/WX TMP DP RH WIND PRES REMARKS
 
CARROLL * PTCLDY 55 54 94 CALM 29.92S  
CHEROKEE * CLEAR 56 53 90 CALM 29.90S  
DENISON * PTCLDY 63 50 63 S6 29.92S  
LE MARS * CLOUDY 61 52 72 SE6 29.86F  
MAURICE * CLOUDY 59 52 77 SE10 29.87S  
SHELDON * CLOUDY 55 50 82 E5 29.88S  
SIOUX CITY CLOUDY 60 51 72 SE7 29.87S  
SPENCER CLEAR 54 48 80 E5 29.91F  
STORM LAKE * PTCLDY 55 52 88 SE6 29.92S  

 
 
IAZ055>058-069>071-079>083-090>094-200600-  
SOUTHWEST IOWA  
 
CITY SKY/WX TMP DP RH WIND PRES REMARKS
 
ATLANTIC * PTCLDY 64 57 77 S8 29.91R  
AUDUBON * MOCLDY 63 54 72 S5 29.93R  
CLARINDA * PTCLDY 63 54 72 S8 29.93S  
COUNCIL BLFS * CLEAR 63 52 67 S13 29.88S  
CRESTON * PTCLDY 64 55 72 S13 29.94R  
HARLAN * CLEAR 63 55 77 S9 29.91S  
LAMONI PTCLDY 62 48 60 S14 29.95R  
RED OAK * PTCLDY 63 54 72 S8 29.91R  
SHENANDOAH * PTCLDY 66 54 63 S12 29.89S  

 
 
IAZ047>049-059>061-072>074-084-200600-  
CENTRAL IOWA  
 
CITY SKY/WX TMP DP RH WIND PRES REMARKS
 
AMES PTCLDY 57 47 69 CALM 29.96R  
ANKENY * PTCLDY 59 48 67 CALM 29.96S  
BOONE * PTCLDY 55 50 82 SE6 29.97S  
CHARITON * CLEAR 61 48 63 S13 29.94S  
DES MOINES PTCLDY 62 47 57 SE6 29.94S  
GRINNELL* CLEAR 60 49 67 SE7 29.99R  
KNOXVILLE * PTCLDY 59 48 67 SE5 29.96R  
MARSHALLTOWN CLEAR 56 46 69 SE7 29.98R  
NEWTON * CLEAR 57 50 77 SE6 29.97R  
PELLA * N/A 59 49 69 SE5 29.98R  
PERRY * FAIR 59 53 80 E5 29.94S  

 
 
IAZ004>006-015-016-023>025-035-036-200600-  
NORTH CENTRAL IOWA  
 
CITY SKY/WX TMP DP RH WIND PRES REMARKS
 
ALGONA * CLEAR 59 48 67 SE8 29.93S  
CLARION * CLEAR 55 46 71 SE9 29.96S  
ESTHERVILLE CLEAR 53 49 86 S7 29.92F  
FORT DODGE * PTCLDY 56 48 74 E8 29.94F  
MASON CITY CLEAR 52 44 74 S7 29.98S  
FOREST CITY * FAIR 52 45 76 SE7 29.96S  
WEBSTER CITY * PTCLDY 55 50 82 SE7 29.94S  
IOWA FALLS * FAIR 54 48 80 SE7 29.99S  

 
 
IAZ007>011-017>019-026>030-037>042-050>054-066-200600-  
NORTHEAST IOWA  
 
CITY SKY/WX TMP DP RH WIND PRES REMARKS
 
CEDAR RAPIDS CLEAR 56 48 74 SE7 29.99F  
CHARLES CITY * PTCLDY 55 48 76 SE8 29.99R  
CLINTON * PTCLDY 54 47 77 S7 30.04S  
DECORAH * CLEAR 55 50 82 S6 29.99S  
DUBUQUE LGT RAIN 56 47 71 S7 30.03R  
MONTICELLO * CLEAR 55 50 82 SE7 30.01S  
OELWEIN * CLEAR 54 46 76 SE8 30.01R  
WATERLOO CLEAR 58 47 66 S6 29.99R  

 
 
IAZ064-065-067-068-078-200600-  
EAST CENTRAL IOWA  
 
CITY SKY/WX TMP DP RH WIND PRES REMARKS
 
DAVENPORT CLEAR 57 46 66 S8 30.05S  
IOWA CITY CLEAR 55 46 71 SE5 30.02S  
MT. PLEASANT * CLEAR 55 48 76 S7 30.01R  
MUSCATINE * CLEAR 52 48 87 CALM 30.02S  
QUAD CITIES CLEAR 57 47 69 CALM 30.03S  

 
 
IAZ062-063-075>077-085>089-095>099-200600-  
SOUTHEAST IOWA  
 
CITY SKY/WX TMP DP RH WIND PRES REMARKS
 
BURLINGTON CLEAR 59 48 67 S10G20 30.02S  
FAIRFIELD * CLEAR 57 48 72 SE9 29.99S  
FORT MADISON * N/A 57 48 72 S8 30.02S  
KEOKUK * N/A 61 48 63 S7 30.01S  
OSKALOOSA * FAIR 59 48 68 CALM 29.98R  
CENTERVILLE * FAIR 59 46 63 S9 29.98S  
OTTUMWA CLEAR 59 48 67 S10 29.97R  
WASHINGTON * CLEAR 54 52 94 SE7 29.99S  

 
 
ABBREVIATIONS USED IN REMARKS  
TC - TEMPERATURES IN CELSIUS  
WCI - WIND CHILL INDEX  
HX - HEAT INDEX  
VSB - VISIBILITY  

 
 
 
 
CLICK HERE TO GO TO PREVIOUS BULLETINS.

The Nexlab IA Page Main Text Page